Weather History for Calgary Springbank, AB

Change the Weather History Date:

Saturday, January 4, 2014

  Actual Average Record
Temperature  
Mean Temperature -7 °F -  
Max Temperature 0 °F 26 °F 57 °F (2012)
Min Temperature -14 °F 6 °F -27 °F (1998)
Degree Days  
Heating Degree Days 72    
Moisture  
Dew Point -9 °F    
Average Humidity 76    
Maximum Humidity 85    
Minimum Humidity 62    
Precipitation  
Precipitation 0.08 in - - ()
Sea Level Pressure  
Sea Level Pressure 30.53 in    
Wind  
Wind Speed 4 mph ()    
Max Wind Speed 14 mph    
Max Gust Speed 21 mph    
Visibility 10.6 miles    
Events Snow    
Averages and records for this station are not official NWS values.
T = Trace of Precipitation, MM = Missing Value Source: Averaged Metar Reports

Daily Weather History Graph

Daily Weather History Graph

Search for Another Location

Airport:

Trip Planner

Search our weather history database for the weather conditions in past years. The results will help you decide how hot, cold, wet, or windy it might be!

Date:

Astronomy

Jan. 04, 2014 Rise Set
Actual Time 8:40 AM MST 4:44 PM MST
Civil Twilight 8:01 AM MST 5:24 PM MST
Nautical Twilight 7:19 AM MST 6:06 PM MST
Astronomical Twilight 6:38 AM MST 6:46 PM MST
Moon 10:19 AM MST (1/4) 9:41 PM MST (1/4)
Length of Visible Light 9h 22m
Length of Day
8h 04m
Waxing Crescent, 16% of the Moon is Illuminated
Jan 4
Waxing Crescent
Jan 7
First Quarter
Jan 15
Full
Jan 23
Last Quarter
Jan 30
New

Hourly Weather History & Observations

Time (MST) Temp. Windchill Dew Point Humidity Pressure Visibility Wind Dir Wind Speed Gust Speed Precip Events Conditions
5:00 AM 0 °F - -4 °F 73% 30.38 in 15 mi ENE 5.8 mph - - Snow Snow
5:00 AM -0.4 °F -13.4 °F -4.0 °F 85% 30.38 in 15.0 mi ENE 6.9 mph - N/A   Ice Crystals
6:00 AM -2.2 °F - -5.8 °F 85% 30.40 in 15.0 mi Calm Calm - N/A   Ice Crystals
7:00 AM -2.2 °F - -5.8 °F 85% 30.43 in 15.0 mi Variable 2.3 mph - N/A   Ice Crystals
8:00 AM -2.2 °F - -5.8 °F 85% 30.45 in 15.0 mi Calm Calm - N/A   Ice Crystals
9:00 AM -2.2 °F -12.5 °F -7.6 °F 78% 30.47 in 10.0 mi ENE 4.6 mph - N/A Snow Light Snow
10:00 AM -2.2 °F -10.4 °F -7.6 °F 78% 30.50 in 2.0 mi ENE 3.5 mph - N/A Snow Light Snow
10:44 AM -2.2 °F - -7.6 °F 78% 30.50 in 3.0 mi East 2.3 mph - N/A Snow Light Snow
11:00 AM -1 °F - -7 °F 66% 30.51 in 4 mi ENE 2.3 mph - - Snow Light Snow
11:00 AM -2.2 °F - -7.6 °F 78% 30.51 in 4.0 mi ENE 2.3 mph - N/A Snow Light Snow
11:26 AM -0.4 °F -10.4 °F -7.6 °F 72% 30.52 in 2.2 mi ENE 4.6 mph - N/A Snow Light Snow
12:00 PM -0.4 °F -8.3 °F -7.6 °F 72% 30.51 in 2.2 mi NE 3.5 mph - N/A Snow Light Snow
12:26 PM -0.4 °F -8.3 °F -7.6 °F 72% 30.52 in 7.0 mi East 3.5 mph - N/A Snow Light Snow
1:00 PM -0.4 °F -8.3 °F -7.6 °F 72% 30.51 in 5.0 mi NNE 3.5 mph - N/A Snow Light Snow
2:00 PM -0.4 °F -10.4 °F -7.6 °F 72% 30.52 in 6.0 mi East 4.6 mph - N/A Snow Light Snow Grains
3:00 PM -2.2 °F -12.5 °F -9.4 °F 71% 30.55 in 15.0 mi East 4.6 mph - N/A   Mostly Cloudy
4:00 PM -2.2 °F -10.4 °F -9.4 °F 71% 30.57 in 15.0 mi ESE 3.5 mph - N/A   Mostly Cloudy
5:00 PM -3 °F - -9 °F 62% 30.61 in 15 mi South 3.5 mph - -  
5:00 PM -4.0 °F -12.4 °F -9.4 °F 78% 30.61 in 15.0 mi SSW 3.5 mph - N/A   Mostly Cloudy
6:00 PM -5.8 °F -16.7 °F -11.2 °F 77% 30.62 in 15.0 mi SW 4.6 mph - N/A   Scattered Clouds
7:00 PM -14.8 °F -29.1 °F -20.2 °F 77% 30.66 in 15.0 mi NNW 5.8 mph - N/A   Partly Cloudy
8:00 PM -9.4 °F -18.6 °F -14.8 °F 77% 30.66 in 15.0 mi West 3.5 mph - N/A   Clear
9:00 PM -13.0 °F -27.0 °F -16.6 °F 84% 30.70 in 15.0 mi NW 5.8 mph - N/A   Clear
10:00 PM -9.4 °F -30.6 °F -14.8 °F 77% 30.70 in 15.0 mi NW 13.8 mph 20.7 mph N/A   Clear